[[{"header":{"parameterUnit":"m.s-1","parameterCategory":1,"la1":30.2991,"la2":30.254,"lo1":-89.0895,"lo2":-89.0444,"dy":0.0017,"dx":0.0017,"nx":28,"ny":28,"refTime":"2025-04-12T09:00:00:Z","depth":0,"parameterNumber":2,"parameterNumberName":"U-component_of_WINDS"},"data":[0,0,0,0,0,0,0,0,0,0,0,0,0,0,0,0,0,0,0,0,0,0,0,0,0,0,0,0,0,0,0,0,0,0,0,0,0,0,0,0,0,0,0,0,0,0,0,0,0,0,0,0,0,0,0,0,0,0,-0.409,-0.409,0,-0.4097,-0.4097,-0.4097,-0.4081,-0.408,-0.408,-0.4079,-0.4087,-0.4088,-0.4089,0,0,0,0,0,0,0,0,0,0,0,0,0,-0.4062,-0.4062,-0.409,-0.409,-0.409,-0.4097,-0.4097,-0.4098,-0.4081,-0.408,-0.408,-0.4079,-0.4087,-0.4088,-0.4089,0,0,0,0,0,0,0,0,0,0,0,0,0,-0.4072,-0.4063,-0.409,-0.4083,-0.4082,-0.4097,-0.4097,-0.4098,-0.4081,-0.408,-0.4079,-0.4079,-0.4087,-0.4088,-0.4089,-0.4112,0,0,-0.4092,-0.4093,0,0,0,0,0,0,0,0,-0.4072,-0.4073,-0.4084,-0.4083,-0.4083,-0.4087,-0.4091,-0.4102,-0.4081,-0.4081,-0.4079,-0.4078,-0.4088,-0.4089,-0.4092,-0.4112,-0.4113,-0.4092,-0.4093,-0.4094,-0.4094,0,0,0,0,0,0,0,-0.4071,-0.4073,-0.4093,-0.4084,-0.4083,-0.4079,-0.408,-0.4093,-0.4089,-0.4081,-0.408,-0.4081,-0.4088,-0.4091,-0.4092,-0.4113,-0.4092,-0.4093,-0.4094,-0.4095,-0.4151,-0.4152,0,0,0,0,0,0,-0.4071,-0.4072,-0.4093,-0.4093,-0.4075,-0.408,-0.4081,-0.4087,-0.4089,-0.4089,-0.4082,-0.408,-0.409,-0.4091,-0.4093,-0.4119,-0.4094,-0.4095,-0.4095,-0.415,-0.4152,-0.4152,0,0,0,0,0,0,-0.4071,-0.4073,-0.4092,-0.4082,-0.4085,-0.4082,-0.4088,-0.4087,-0.4091,-0.4089,-0.4089,-0.4086,-0.4089,-0.4091,-0.4107,-0.4119,-0.4095,-0.4096,-0.4149,-0.4151,-0.4152,-0.4173,0,0,0,0,0,0,-0.407,-0.4073,-0.4082,-0.4083,-0.4085,-0.4107,-0.4089,-0.4088,-0.4093,-0.4091,-0.4093,-0.4093,-0.4089,-0.4106,-0.4108,-0.412,-0.4097,-0.4148,-0.415,-0.4152,-0.4171,-0.4175,-0.4178,0,0,0,0,0,-0.4069,-0.4087,-0.4082,-0.4085,-0.4096,-0.4108,-0.4109,-0.4103,-0.4094,-0.4102,-0.4101,-0.4093,-0.4117,-0.4107,-0.411,-0.4123,-0.4148,-0.415,-0.4151,-0.4169,-0.4174,-0.4178,0,0,0,0,0,0,-0.4088,-0.4087,-0.4082,-0.4101,-0.4104,-0.4105,-0.4115,-0.4108,-0.4115,-0.4113,-0.4106,-0.4107,-0.4124,-0.4125,-0.4114,-0.4145,-0.4131,-0.4133,-0.4144,-0.4148,-0.4151,-0.415,-0.4098,0,0,0,0,0,-0.4095,-0.4104,-0.4103,-0.412,-0.4122,-0.4119,-0.4123,-0.4119,-0.4122,-0.4124,-0.4124,-0.4128,-0.4136,-0.4142,-0.415,-0.4171,-0.4171,-0.4181,-0.4184,-0.4187,-0.4189,-0.42,-0.4204,-0.4159,-0.4159,-0.4159,0,0,-0.4109,-0.4109,-0.4116,-0.4124,-0.4126,-0.4136,-0.412,-0.4131,-0.4138,-0.4125,-0.414,-0.4141,-0.4144,-0.4163,-0.4171,-0.4164,-0.4202,-0.4189,-0.4192,-0.4193,-0.4203,-0.4207,-0.4211,-0.416,-0.416,-0.416,0,0,-0.4139,-0.414,-0.4154,-0.4157,-0.416,-0.4157,-0.416,-0.4162,-0.4161,-0.4176,-0.4166,-0.4175,-0.419,-0.4192,-0.4196,-0.4226,-0.4218,-0.4229,-0.4246,-0.4257,-0.4261,-0.4264,-0.4274,-0.4278,-0.4231,-0.4231,-0.4231,0,-0.4155,-0.417,-0.4163,-0.4174,-0.4178,-0.4166,-0.4181,-0.4183,-0.4189,-0.4192,-0.4184,-0.4202,-0.4204,-0.4223,-0.423,-0.4233,-0.4237,-0.4229,-0.4261,-0.4264,-0.4267,-0.4277,-0.4281,-0.4232,-0.4232,-0.4232,-0.4232,0,-0.419,-0.42,-0.4211,-0.4216,-0.4222,-0.4235,-0.423,-0.4236,-0.4231,-0.4229,-0.4244,-0.4245,-0.4253,-0.4257,-0.4252,-0.4275,-0.427,-0.4262,-0.4248,-0.4272,-0.4282,-0.4285,-0.4234,-0.4234,-0.4233,-0.4233,0,0,-0.4233,-0.4234,-0.4238,-0.424,-0.4242,-0.425,-0.4262,-0.4269,-0.4274,-0.4278,-0.4289,-0.4301,-0.4293,-0.4297,-0.4292,-0.4301,-0.4325,-0.4291,-0.4291,-0.4297,-0.435,-0.4356,-0.4361,-0.4319,-0.432,-0.4321,-0.4349,0,-0.4263,-0.4284,-0.4278,-0.4299,-0.4308,-0.4296,-0.4307,-0.4309,-0.4307,-0.4315,-0.4313,-0.4322,-0.431,-0.4313,-0.4321,-0.432,-0.4335,-0.4318,-0.4329,-0.4329,-0.4328,-0.4366,-0.4373,-0.44,-0.4353,-0.4354,-0.4354,0,-0.43,-0.4305,-0.4327,-0.4327,-0.4331,-0.434,-0.4346,-0.4353,-0.4356,-0.4354,-0.4358,-0.4351,-0.4363,-0.4348,-0.4365,-0.4353,-0.4357,-0.4357,-0.4358,-0.4359,-0.4343,-0.4368,-0.4408,-0.4412,-0.436,-0.4359,-0.4359,0,-0.433,-0.4342,-0.4356,-0.4358,-0.4359,-0.4366,-0.4366,-0.4368,-0.4372,-0.4377,-0.438,-0.4386,-0.439,-0.4395,-0.439,-0.438,-0.4407,-0.4392,-0.4406,-0.4406,-0.4412,-0.4412,-0.4454,-0.4415,-0.4415,-0.4415,-0.4415,0,-0.4364,-0.4377,-0.4369,-0.4378,-0.4393,-0.4386,-0.4401,-0.44,-0.4401,-0.441,-0.44,-0.4408,-0.4401,-0.4409,-0.4405,-0.4419,-0.4421,-0.442,-0.4418,-0.4421,-0.4421,-0.4423,-0.4421,-0.4416,-0.4415,-0.4415,-0.4415,0,-0.4399,-0.4394,-0.4409,-0.4408,-0.4408,-0.4419,-0.4418,-0.4426,-0.4423,-0.4434,-0.4436,-0.4432,-0.4441,-0.4436,-0.4445,-0.4442,-0.446,-0.4457,-0.4459,-0.4458,-0.4472,-0.4471,-0.4518,-0.4523,-0.448,-0.4481,-0.4481,0,-0.4421,-0.4431,-0.4431,-0.4435,-0.4436,-0.4444,-0.4449,-0.4441,-0.4446,-0.4449,-0.4457,-0.4464,-0.447,-0.4484,-0.4482,-0.4488,-0.4485,-0.4501,-0.4486,-0.4487,-0.4485,-0.4484,-0.4485,-0.4504,-0.4504,-0.4505,-0.4505,0,-0.4461,-0.4457,-0.4464,-0.4469,-0.4474,-0.4478,-0.4481,-0.4485,-0.4478,-0.4484,-0.4492,-0.4496,-0.4505,-0.4512,-0.4518,-0.4518,-0.451,-0.4509,-0.4513,-0.4515,-0.4516,-0.4516,-0.4468,-0.4509,-0.4508,-0.4508,-0.4508,-0.4508,-0.449,-0.4498,-0.4499,-0.4506,-0.4507,-0.451,-0.4518,-0.4515,-0.4522,-0.4528,-0.4523,-0.4533,-0.4534,-0.4541,-0.4542,-0.455,-0.4543,-0.4548,-0.455,-0.4551,-0.4553,-0.4515,-0.4551,-0.4551,-0.455,-0.455,-0.455,0,-0.4529,-0.4529,-0.4535,-0.4539,-0.4545,-0.4536,-0.4539,-0.4544,-0.4552,-0.4554,-0.4559,-0.4569,-0.4575,-0.4574,-0.458,-0.4586,-0.4583,-0.4588,-0.4587,-0.4588,-0.4558,-0.4555,-0.4591,-0.4591,-0.4591,-0.4591,-0.4591,-0.4591,-0.455,-0.4563,-0.456,-0.4574,-0.4573,-0.4582,-0.4584,-0.4587,-0.4588,-0.4598,-0.4604,-0.4602,-0.4603,-0.4609,-0.4615,-0.4614,-0.4617,-0.4623,-0.4621,-0.4594,-0.459,-0.4586,-0.4582,-0.4624,-0.4624,-0.465,-0.465,-0.465]},{"header":{"parameterUnit":"m.s-1","parameterCategory":1,"la1":30.2991,"la2":30.254,"lo1":-89.0895,"lo2":-89.0444,"dy":0.0017,"dx":0.0017,"nx":28,"ny":28,"refTime":"2025-04-12T09:00:00:Z","depth":0,"parameterNumber":3,"parameterNumberName":"V-component_of_WINDS"},"data":[0,0,0,0,0,0,0,0,0,0,0,0,0,0,0,0,0,0,0,0,0,0,0,0,0,0,0,0,0,0,0,0,0,0,0,0,0,0,0,0,0,0,0,0,0,0,0,0,0,0,0,0,0,0,0,0,0,0,-3.0749,-3.0751,0,-3.0897,-3.0899,-3.09,-3.0879,-3.0876,-3.0874,-3.0871,-3.1019,-3.1025,-3.1031,0,0,0,0,0,0,0,0,0,0,0,0,0,-3.0446,-3.0452,-3.0749,-3.0751,-3.0753,-3.0897,-3.0899,-3.0901,-3.0879,-3.0876,-3.0873,-3.087,-3.1017,-3.1024,-3.1032,0,0,0,0,0,0,0,0,0,0,0,0,0,-3.0584,-3.0454,-3.0749,-3.076,-3.0762,-3.0896,-3.0899,-3.0901,-3.088,-3.0876,-3.0872,-3.0869,-3.1014,-3.1023,-3.1033,-3.1165,0,0,-3.1061,-3.1065,0,0,0,0,0,0,0,0,-3.0576,-3.0595,-3.0756,-3.0759,-3.0762,-3.0866,-3.0846,-3.0989,-3.0881,-3.0835,-3.0871,-3.0867,-3.0971,-3.0983,-3.1019,-3.1172,-3.1178,-3.1062,-3.1068,-3.1072,-3.1074,0,0,0,0,0,0,0,-3.0567,-3.0589,-3.0808,-3.0759,-3.0762,-3.0756,-3.0772,-3.0873,-3.0922,-3.0839,-3.0837,-3.0855,-3.0971,-3.101,-3.1022,-3.118,-3.1062,-3.107,-3.1076,-3.108,-3.1449,-3.1453,0,0,0,0,0,0,-3.0555,-3.0581,-3.0803,-3.0812,-3.0658,-3.0765,-3.0782,-3.0836,-3.0921,-3.093,-3.0858,-3.0854,-3.0996,-3.1011,-3.1027,-3.1189,-3.1072,-3.108,-3.1086,-3.1445,-3.145,-3.1455,0,0,0,0,0,0,-3.0548,-3.0575,-3.0797,-3.0696,-3.0724,-3.0774,-3.0835,-3.0841,-3.088,-3.0936,-3.0944,-3.0889,-3.0994,-3.1014,-3.1131,-3.1193,-3.1085,-3.1093,-3.144,-3.1447,-3.1453,-3.1511,0,0,0,0,0,0,-3.054,-3.0573,-3.0624,-3.0698,-3.073,-3.0899,-3.0839,-3.0847,-3.0896,-3.0892,-3.0967,-3.0975,-3.0992,-3.1117,-3.1141,-3.1204,-3.11,-3.1435,-3.1443,-3.1451,-3.1504,-3.1519,-3.1531,0,0,0,0,0,-3.0529,-3.0633,-3.0627,-3.0653,-3.0795,-3.0903,-3.0921,-3.094,-3.0901,-3.0953,-3.0989,-3.0973,-3.1183,-3.113,-3.1155,-3.1223,-3.1431,-3.1441,-3.145,-3.1498,-3.1516,-3.1531,0,0,0,0,0,0,-3.0564,-3.0643,-3.0636,-3.0768,-3.0829,-3.0899,-3.0965,-3.0958,-3.103,-3.1023,-3.1041,-3.1058,-3.1177,-3.1211,-3.1151,-3.1356,-3.1301,-3.1317,-3.1329,-3.1347,-3.136,-3.1349,-3.1108,0,0,0,0,0,-3.0587,-3.0669,-3.0734,-3.0843,-3.0875,-3.0915,-3.0962,-3.0971,-3.1035,-3.106,-3.1105,-3.1166,-3.1246,-3.1298,-3.1374,-3.1509,-3.1525,-3.1568,-3.1581,-3.1592,-3.1605,-3.168,-3.17,-3.1486,-3.1486,-3.1486,0,0,-3.0635,-3.0689,-3.0739,-3.0852,-3.09,-3.0984,-3.0936,-3.1027,-3.1089,-3.1073,-3.1187,-3.1222,-3.1292,-3.1418,-3.1476,-3.1451,-3.1668,-3.1604,-3.1613,-3.162,-3.1692,-3.1712,-3.173,-3.1492,-3.1491,-3.149,0,0,-3.0767,-3.0815,-3.0913,-3.0963,-3.1037,-3.1064,-3.1087,-3.1159,-3.1182,-3.1297,-3.1287,-3.1361,-3.1498,-3.1548,-3.1592,-3.1744,-3.1732,-3.1768,-3.184,-3.1912,-3.1929,-3.1944,-3.1999,-3.2018,-3.178,-3.1781,-3.1781,0,-3.0817,-3.0945,-3.0963,-3.1056,-3.1106,-3.1097,-3.1196,-3.1243,-3.1338,-3.1373,-3.1343,-3.1516,-3.1562,-3.17,-3.1738,-3.1773,-3.18,-3.176,-3.1925,-3.194,-3.1955,-3.2007,-3.2028,-3.1785,-3.1784,-3.1784,-3.1783,0,-3.1003,-3.1092,-3.1161,-3.1255,-3.1313,-3.1408,-3.1441,-3.1497,-3.1501,-3.153,-3.1648,-3.1703,-3.1791,-3.1824,-3.1829,-3.1964,-3.1946,-3.1921,-3.1867,-3.1979,-3.2028,-3.2049,-3.179,-3.1789,-3.1788,-3.1787,0,0,-3.116,-3.1265,-3.129,-3.1333,-3.1415,-3.1484,-3.1578,-3.1666,-3.1714,-3.178,-3.186,-3.1976,-3.1954,-3.2003,-3.2013,-3.2077,-3.2195,-3.2044,-3.2046,-3.207,-3.2348,-3.2368,-3.2391,-3.2187,-3.2191,-3.2194,-3.2343,0,-3.13,-3.1469,-3.1489,-3.1639,-3.1721,-3.1715,-3.1797,-3.1856,-3.1886,-3.1959,-3.1992,-3.2075,-3.2038,-3.2068,-3.2131,-3.2167,-3.2251,-3.2157,-3.2262,-3.2265,-3.2245,-3.2416,-3.2437,-3.2574,-3.2362,-3.2365,-3.2368,0,-3.1485,-3.1559,-3.1717,-3.1789,-3.1825,-3.1899,-3.1981,-3.2052,-3.2118,-3.2136,-3.2192,-3.2194,-3.2292,-3.2234,-3.2368,-3.2304,-3.2348,-3.2372,-3.2378,-3.2389,-3.2324,-3.2432,-3.2618,-3.2639,-3.2399,-3.2396,-3.2394,0,-3.1585,-3.1723,-3.1836,-3.1873,-3.196,-3.2012,-3.205,-3.2114,-3.2166,-3.2237,-3.2271,-3.2353,-3.2397,-3.246,-3.2484,-3.244,-3.2618,-3.2562,-3.2635,-3.2634,-3.2673,-3.267,-3.2869,-3.27,-3.27,-3.27,-3.2699,0,-3.1739,-3.1836,-3.1882,-3.1952,-3.2061,-3.2083,-3.219,-3.2226,-3.2283,-3.2359,-3.2357,-3.2428,-3.2456,-3.2531,-3.2551,-3.266,-3.2679,-3.2696,-3.27,-3.2697,-3.2695,-3.2726,-3.2717,-3.2705,-3.2704,-3.2703,-3.2702,0,-3.1868,-3.1903,-3.2026,-3.2099,-3.2119,-3.2197,-3.2258,-3.2326,-3.2355,-3.2451,-3.2475,-3.2521,-3.261,-3.2641,-3.2748,-3.2761,-3.2888,-3.2883,-3.2866,-3.2867,-3.2938,-3.2931,-3.3164,-3.3196,-3.3006,-3.3008,-3.3009,0,-3.1964,-3.204,-3.2121,-3.2173,-3.2214,-3.2297,-3.235,-3.2375,-3.2431,-3.2513,-3.2571,-3.2659,-3.2732,-3.2874,-3.2916,-3.2998,-3.2996,-3.3072,-3.3008,-3.3003,-3.2998,-3.2994,-3.3002,-3.3084,-3.3086,-3.3088,-3.3089,0,-3.2132,-3.2146,-3.2224,-3.2309,-3.2373,-3.244,-3.2505,-3.2547,-3.2581,-3.2644,-3.2736,-3.2792,-3.2903,-3.2991,-3.3075,-3.3114,-3.3108,-3.3109,-3.313,-3.3128,-3.3115,-3.3124,-3.2899,-3.3103,-3.3102,-3.3101,-3.31,-3.31,-3.2248,-3.2315,-3.2384,-3.2471,-3.2523,-3.2584,-3.2651,-3.269,-3.2768,-3.2861,-3.287,-3.297,-3.3035,-3.3148,-3.3191,-3.3268,-3.3247,-3.3277,-3.3285,-3.3293,-3.3299,-3.3103,-3.3283,-3.3283,-3.3282,-3.3282,-3.3282,0,-3.2416,-3.2461,-3.2541,-3.2633,-3.2701,-3.2691,-3.2763,-3.2821,-3.2908,-3.2971,-3.3043,-3.3149,-3.3235,-3.3284,-3.337,-3.3422,-3.3422,-3.3444,-3.3441,-3.345,-3.3312,-3.3286,-3.3443,-3.3443,-3.3443,-3.3443,-3.3443,-3.3443,-3.2512,-3.2625,-3.2648,-3.2787,-3.283,-3.2928,-3.297,-3.3027,-3.3077,-3.3196,-3.3268,-3.33,-3.3358,-3.3448,-3.3526,-3.3539,-3.357,-3.3595,-3.3605,-3.3476,-3.3459,-3.3444,-3.3419,-3.3602,-3.3602,-3.3737,-3.3738,-3.3739]}]]